TimeEDT,TemperatureF,Dew PointF,Humidity,Sea Level PressureIn,VisibilityMPH,Wind Direction,Wind SpeedMPH,Gust SpeedMPH,PrecipitationIn,Events,Conditions,WindDirDegrees,DateUTC
12:58 AM,57.0,53.4,88,30.16,10.0,SSW,8.1,-,N/A,,Mostly Cloudy,200,2013-09-10 04:58:00
1:58 AM,58.8,54.3,85,30.16,10.0,South,5.8,-,N/A,,Overcast,190,2013-09-10 05:58:00
2:58 AM,60.3,55.4,84,30.15,10.0,SSW,5.8,-,N/A,,Overcast,200,2013-09-10 06:58:00
3:05 AM,60.8,55.4,82,30.13,10.0,SSW,4.6,-,N/A,,Overcast,200,2013-09-10 07:05:00
3:23 AM,60.8,55.4,82,30.12,10.0,South,5.8,-,N/A,,Overcast,190,2013-09-10 07:23:00
3:31 AM,60.8,57.2,88,30.13,10.0,South,4.6,-,N/A,,Overcast,190,2013-09-10 07:31:00
3:58 AM,61.5,57.0,85,30.14,10.0,South,9.2,-,N/A,,Overcast,180,2013-09-10 07:58:00
4:58 AM,62.4,58.6,87,30.14,10.0,South,6.9,-,N/A,,Overcast,180,2013-09-10 08:58:00
5:12 AM,62.6,59.0,88,30.12,10.0,South,6.9,-,N/A,,Overcast,170,2013-09-10 09:12:00
5:49 AM,62.6,60.8,94,30.12,10.0,South,5.8,-,N/A,Rain,Light Rain,190,2013-09-10 09:49:00
5:58 AM,62.6,61.2,95,30.14,9.0,South,6.9,-,0.00,Rain,Light Rain,190,2013-09-10 09:58:00
6:04 AM,62.6,60.8,94,30.12,10.0,South,6.9,-,N/A,,Overcast,180,2013-09-10 10:04:00
6:06 AM,62.6,60.8,94,30.12,10.0,South,6.9,-,N/A,,Overcast,180,2013-09-10 10:06:00
6:23 AM,62.6,60.8,94,30.12,10.0,South,6.9,-,N/A,,Overcast,180,2013-09-10 10:23:00
6:44 AM,62.6,62.6,100,30.13,10.0,South,8.1,-,N/A,,Overcast,180,2013-09-10 10:44:00
6:58 AM,62.8,62.4,99,30.15,10.0,South,8.1,-,0.00,,Overcast,180,2013-09-10 10:58:00
7:37 AM,64.4,62.6,94,30.12,10.0,South,11.5,-,N/A,,Overcast,180,2013-09-10 11:37:00
7:38 AM,64.4,62.6,94,30.12,10.0,South,11.5,-,N/A,,Overcast,180,2013-09-10 11:38:00
7:41 AM,64.4,62.6,94,30.12,10.0,South,10.4,-,N/A,,Overcast,180,2013-09-10 11:41:00
7:51 AM,64.4,62.6,94,30.12,10.0,South,8.1,-,N/A,,Overcast,190,2013-09-10 11:51:00
7:58 AM,63.7,63.3,99,30.13,10.0,South,8.1,-,N/A,,Overcast,190,2013-09-10 11:58:00
8:58 AM,64.8,64.6,99,30.13,10.0,South,12.7,-,N/A,,Overcast,180,2013-09-10 12:58:00
9:15 AM,64.4,64.4,100,30.11,10.0,South,11.5,-,N/A,,Overcast,180,2013-09-10 13:15:00
9:58 AM,66.0,65.7,99,30.14,8.0,South,10.4,-,N/A,,Overcast,190,2013-09-10 13:58:00
10:14 AM,66.2,66.2,100,30.12,10.0,SSW,10.4,-,N/A,,Overcast,200,2013-09-10 14:14:00
10:39 AM,66.2,66.2,100,30.12,10.0,SSW,10.4,-,N/A,,Light Drizzle,210,2013-09-10 14:39:00
10:46 AM,68.0,66.2,94,30.12,10.0,SSW,10.4,-,N/A,,Light Drizzle,200,2013-09-10 14:46:00
10:52 AM,68.0,66.2,94,30.13,10.0,SSW,10.4,-,N/A,,Overcast,200,2013-09-10 14:52:00
10:54 AM,68.0,66.2,94,30.13,10.0,SSW,8.1,-,N/A,Rain-Thunderstorm,Light Rain Showers,210,2013-09-10 14:54:00
10:58 AM,67.3,66.9,99,30.18,4.0,WSW,9.2,-,0.00,Rain-Thunderstorm,Rain,250,2013-09-10 14:58:00
11:02 AM,68.0,66.2,94,30.16,1.0,WSW,8.1,-,N/A,Rain-Thunderstorm,Rain,240,2013-09-10 15:02:00
11:04 AM,68.0,66.2,94,30.15,1.5,WSW,6.9,-,N/A,Rain-Thunderstorm,Rain,240,2013-09-10 15:04:00
11:07 AM,68.0,66.2,94,30.14,4.0,SSW,8.1,-,N/A,Rain-Thunderstorm,Light Rain,200,2013-09-10 15:07:00
11:17 AM,66.2,66.2,100,30.11,5.0,South,12.7,-,N/A,Rain,Light Rain,190,2013-09-10 15:17:00
11:35 AM,66.2,66.2,100,30.08,10.0,South,15.0,-,N/A,Rain,Light Rain,170,2013-09-10 15:35:00
11:48 AM,68.0,68.0,100,30.06,10.0,South,17.3,21.9,N/A,Rain,Light Rain,180,2013-09-10 15:48:00
11:55 AM,68.0,68.0,100,30.05,10.0,South,16.1,24.2,N/A,Rain,Light Rain,180,2013-09-10 15:55:00
11:58 AM,67.5,67.3,99,30.06,10.0,South,17.3,24.2,0.21,Rain,Light Rain,180,2013-09-10 15:58:00
12:02 PM,68.0,68.0,100,30.04,10.0,South,16.1,24.2,N/A,Rain,Light Rain,170,2013-09-10 16:02:00
12:35 PM,68.0,68.0,100,30.06,10.0,SSW,12.7,-,N/A,,Overcast,200,2013-09-10 16:35:00
12:46 PM,69.8,68.0,94,30.05,10.0,SSW,12.7,-,N/A,,Overcast,200,2013-09-10 16:46:00
12:58 PM,69.4,69.1,99,30.07,10.0,SSW,11.5,-,0.01,,Overcast,200,2013-09-10 16:58:00
1:28 PM,71.6,69.8,94,30.05,10.0,SSW,11.5,-,N/A,,Overcast,210,2013-09-10 17:28:00
1:43 PM,71.6,71.6,100,30.05,10.0,South,10.4,-,N/A,,Overcast,190,2013-09-10 17:43:00
1:58 PM,72.0,71.1,97,30.07,10.0,SSW,10.4,-,N/A,,Overcast,210,2013-09-10 17:58:00
2:58 PM,75.0,70.3,85,30.08,10.0,SSW,9.2,-,N/A,,Scattered Clouds,210,2013-09-10 18:58:00
3:03 PM,75.2,69.8,83,30.06,10.0,SSW,11.5,-,N/A,,Mostly Cloudy,210,2013-09-10 19:03:00
3:58 PM,74.7,70.5,87,30.07,10.0,South,10.4,-,N/A,,Overcast,190,2013-09-10 19:58:00
4:37 PM,73.4,71.6,94,30.04,10.0,South,9.2,-,N/A,,Light Drizzle,190,2013-09-10 20:37:00
4:47 PM,73.4,71.6,94,30.04,10.0,South,5.8,-,N/A,,Overcast,190,2013-09-10 20:47:00
4:58 PM,74.3,71.6,91,30.06,10.0,SSW,8.1,-,0.00,,Mostly Cloudy,200,2013-09-10 20:58:00
5:03 PM,75.2,71.6,89,30.04,10.0,SSW,5.8,-,N/A,,Scattered Clouds,200,2013-09-10 21:03:00
5:52 PM,75.2,71.6,89,30.03,10.0,South,6.9,-,N/A,Rain,Light Rain,180,2013-09-10 21:52:00
5:58 PM,76.1,72.3,88,30.05,10.0,South,5.8,-,0.00,Rain,Light Rain,190,2013-09-10 21:58:00
6:00 PM,77.0,73.4,89,30.03,10.0,South,6.9,-,N/A,,Clear,190,2013-09-10 22:00:00
6:58 PM,75.7,73.0,91,30.05,10.0,South,8.1,-,0.00,,Clear,190,2013-09-10 22:58:00
7:58 PM,74.5,73.0,95,30.06,10.0,South,11.5,-,N/A,,Clear,190,2013-09-10 23:58:00
8:58 PM,73.2,72.7,98,30.07,10.0,South,9.2,-,N/A,,Clear,180,2013-09-11 00:58:00
9:58 PM,72.0,71.6,99,30.09,10.0,South,5.8,-,N/A,,Clear,170,2013-09-11 01:58:00
10:58 PM,71.4,71.1,99,30.09,10.0,South,8.1,-,N/A,,Clear,170,2013-09-11 02:58:00
11:58 PM,70.7,70.3,99,30.09,9.0,SSE,2.3,-,N/A,,Clear,160,2013-09-11 03:58:00